Home > Weather > Tönisvorst > Past weeks

Flag for Germany Weather for the Past 2 Weeks in Tönisvorst, North Rhine-Westphalia, Germany

Now
54 °F

Clear.


Feels Like: 51 °F
Forecast: 38 / 65 °F
Wind: 8 mph from Northwest

Location: Monchengladbach Airport

Current Time: May 1, 2016 at 11:30:18 PM

Latest Report: May 1, 2016 at 8:20 PM


Visibility: 10 mi

Pressure: 30.33 "Hg

Humidity: 67%

Dew Point: 43 °F

Location of TönisvorstLocation

Historic Weather in Tönisvorst — Graph

°F

Tönisvorst Temperature Yesterday

Maximum temperature yesterday: 50 °F (at 1:50 PM)
Minimum temperature yesterday: 43 °F (at 7:50 AM)
Average temperature yesterday: 47 °F

High & Low Weather Summary for the Past Weeks

 TemperatureHumidityPressure
High66 °F (Apr 21, 4:20 PM)100% (Apr 30, 7:50 AM)30.48 "Hg (Apr 30, 7:50 AM)
Low37 °F (Apr 18, 7:50 AM)28% (Apr 21, 5:20 PM)29.50 "Hg (Apr 26, 12:20 PM)
Average49 °F65%30.02 "Hg
* Reported Apr 17 7:50 AM — May 1 8:20 PM, Tönisvorst, Weather by CustomWeather, © 2016

Note: Actual official high and low records may vary slightly from our data, if they occured in-between our weather recording intervals... More about our weather records

Advertising

Tönisvorst Weather History for the Previous 24 Hours

Scroll right to see more
 ConditionsComfort  
Time TempWeatherWind HumidityBarometerVisibility
8:20 PM
Sun, May 1
54 °FClear.8 mph67%30.33 "Hg10 mi
7:50 PM54 °FPassing clouds.12 mph67%30.30 "HgN/A
7:20 PM54 °FClear.13 mph67%30.30 "Hg10 mi
6:50 PM55 °FClear.14 mph63%30.30 "Hg10 mi
6:20 PM55 °FClear.13 mph67%30.30 "Hg10 mi
5:50 PM55 °FClear.14 mph67%30.30 "Hg10 mi
5:20 PM57 °FPassing clouds.12 mph63%30.30 "HgN/A
4:50 PM57 °FPassing clouds.10 mph59%30.30 "HgN/A
4:20 PM57 °FPassing clouds.12 mph55%30.30 "HgN/A
3:50 PM57 °FPassing clouds.12 mph63%30.30 "HgN/A
3:20 PM57 °FPassing clouds.13 mph59%30.30 "HgN/A
2:50 PM55 °FPassing clouds.13 mph59%30.30 "HgN/A
2:20 PM55 °FPassing clouds.13 mph59%30.30 "HgN/A
1:50 PM54 °FPassing clouds.10 mph58%30.30 "HgN/A
1:20 PM54 °FPassing clouds.15 mph63%30.30 "HgN/A
12:50 PM52 °FPassing clouds.13 mph62%30.30 "HgN/A
12:20 PM52 °FPassing clouds.12 mph67%30.30 "HgN/A
11:50 AM48 °FSunny.10 mph71%30.30 "Hg10 mi
11:20 AM50 °FPassing clouds.10 mph76%30.30 "HgN/A
10:50 AM46 °FPassing clouds.12 mph76%30.30 "HgN/A
10:20 AM46 °FScattered clouds.9 mph76%30.30 "HgN/A
9:50 AM46 °FPartly sunny.10 mph76%30.30 "HgN/A
8:50 AM45 °FPartly sunny.8 mph81%30.30 "HgN/A
8:20 AM43 °FScattered clouds.9 mph87%30.30 "HgN/A
7:50 AM43 °FSunny.9 mph87%30.27 "Hg10 mi
Weather by CustomWeather, © 2016

See weather overviewHow to use our weather pages